User: anonymous   Login
Location: Izdebno
(52.6670°N, 16.2170°E)
Time: 16:34:00
(UTC+02:00)
Language:

AO-91 - Orbit

View from above orbital plane
View from above orbital plane
View from above satellite
View from above satellite

Ground track
Ground track

The orbit is defined by the following mean orbital elements,

1 43017U          26159.34389375 +.00000000 +00000-0 +33533-3 0 00003
2 43017  97.4721  26.7398 0150896 359.9259   0.1924 15.12571253    01
Epoch (UTC): 08 June 2026 08:15:12
Eccentricity: 0.0150896
inclination: 97.4721°
perigee height: 424 km
apogee height: 633 km
right ascension of ascending node: 26.7398°
argument of perigee: 359.9259°
revolutions per day: 15.12571253
mean anomaly at epoch: 0.1924°

The dashed part of the orbit path shows where the satellite is in the earth's shadow,  

DLR